Taunton, MA

8:53 AM EDT on September 26, 2017 (GMT -0400)
Taunton Municipal

Weather History for KTAN - March, 2013

Change the Weather History Date:

Tuesday, March 19, 2013

  Actual Average Record
Temperature  
Mean Temperature 36 °F -  
Max Temperature 41 °F 48 °F 80 °F (2012)
Min Temperature 30 °F 26 °F -8 °F (1967)
Degree Days  
Heating Degree Days 30    
Moisture  
Dew Point 32 °F    
Average Humidity 85    
Maximum Humidity 89    
Minimum Humidity 73    
Precipitation  
Precipitation 0.84 in - - ()
Sea Level Pressure  
Sea Level Pressure 29.83 in    
Wind  
Wind Speed 8 mph (NE)    
Max Wind Speed 14 mph    
Max Gust Speed 24 mph    
Visibility 4 miles    
Events Rain , Snow    
Averages and records for this station are not official NWS values.
T = Trace of Precipitation, MM = Missing Value Source: NWS Daily Summary

Daily Weather History Graph

Daily Weather History Graph

Search for Another Location

Airport or City:

Trip Planner

Search our weather history database for the weather conditions in past years. The results will help you decide how hot, cold, wet, or windy it might be!

Date:

Astronomy

Mar. 19, 2013 Rise Set
Actual Time 6:48 AM EDT 6:55 PM EDT
Civil Twilight 6:20 AM EDT 7:23 PM EDT
Nautical Twilight 5:48 AM EDT 7:55 PM EDT
Astronomical Twilight 5:15 AM EDT 8:29 PM EDT
Moon 11:31 AM EDT (3/19) 1:45 AM EDT (3/19)
Length of Visible Light 13h 02m
Length of Day
12h 06m
Waxing Crescent, 49% of the Moon is Illuminated
Mar 19
Waxing Crescent
Mar 19
First Quarter
Mar 27
Full
Apr 3
Last Quarter
Apr 10
New

Hourly Weather History & Observations

Time (EDT) Temp. Windchill Dew Point Humidity Pressure Visibility Wind Dir Wind Speed Gust Speed Precip Events Conditions
12:00 AM 32.0 °F 26.4 °F 24.1 °F 73% 30.23 in 2.5 mi ENE 5.8 mph - 0.00 in Snow Light Snow
12:10 AM 30.9 °F 24.3 °F 25.0 °F 79% 30.22 in 1.5 mi East 6.9 mph - 0.00 in Snow Light Snow
12:25 AM 30.9 °F 25.2 °F 26.1 °F 82% 30.20 in 1.0 mi East 5.8 mph - 0.01 in Snow Light Snow
12:34 AM 30.9 °F 24.3 °F 26.1 °F 82% 30.20 in 1.0 mi East 6.9 mph - 0.01 in Snow Light Snow
12:43 AM 30.9 °F 25.2 °F 27.0 °F 85% 30.19 in 1.0 mi East 5.8 mph - 0.02 in Snow Light Snow
12:59 AM 30.9 °F 24.3 °F 27.0 °F 85% 30.17 in 1.0 mi East 6.9 mph - 0.00 in Snow Light Snow
1:07 AM 30.9 °F 24.3 °F 27.0 °F 85% 30.16 in 1.5 mi East 6.9 mph - 0.01 in Snow Light Snow
1:12 AM 30.9 °F 24.3 °F 27.0 °F 85% 30.16 in 1.2 mi East 6.9 mph - 0.01 in Snow Light Snow
1:52 AM 32.0 °F 25.6 °F 27.0 °F 82% 30.12 in 1.2 mi East 6.9 mph - 0.03 in Snow Light Snow
2:25 AM 32.0 °F 24.8 °F 28.0 °F 85% 30.10 in 1.5 mi East 8.1 mph - 0.04 in Snow Light Snow
2:28 AM 32.0 °F 24.8 °F 28.0 °F 85% 30.09 in 1.2 mi East 8.1 mph - 0.05 in Snow Light Snow
2:40 AM 32.0 °F 26.4 °F 28.0 °F 85% 30.09 in 1.8 mi East 5.8 mph - 0.07 in Snow Light Snow
2:50 AM 32.0 °F 25.6 °F 28.4 °F 87% 30.08 in 3.0 mi East 6.9 mph - 0.09 in Snow Light Snow
2:52 AM 32.0 °F 25.6 °F 28.0 °F 85% 30.08 in 4.0 mi East 6.9 mph - 0.09 in Snow Light Snow
3:28 AM 33.1 °F 26.1 °F 28.0 °F 82% 30.06 in 6.0 mi East 8.1 mph - 0.02 in Rain Light Freezing Rain
3:52 AM 33.1 °F 26.1 °F 28.0 °F 82% 30.06 in 7.0 mi East 8.1 mph - 0.04 in Rain Light Freezing Rain
4:16 AM 33.1 °F 26.1 °F 28.0 °F 82% 30.03 in 6.0 mi East 8.1 mph - 0.02 in Rain Rain
4:52 AM 33.1 °F 25.5 °F 28.0 °F 82% 30.01 in 4.0 mi East 9.2 mph 18.4 mph 0.06 in Rain Rain
5:10 AM 33.1 °F 26.9 °F 28.0 °F 82% 30.01 in 4.0 mi East 6.9 mph - 0.02 in Rain Light Rain
5:44 AM 33.1 °F 25.5 °F 28.0 °F 82% 30.00 in 2.5 mi ENE 9.2 mph - 0.04 in Snow Light Snow
5:52 AM 33.1 °F 26.1 °F 28.0 °F 82% 30.00 in 2.5 mi ENE 8.1 mph - 0.05 in Snow Light Snow
6:11 AM 33.1 °F 26.9 °F 28.9 °F 85% 29.99 in 1.8 mi East 6.9 mph - 0.01 in Snow Light Snow
6:29 AM 33.1 °F 26.1 °F 28.9 °F 85% 29.99 in 2.0 mi ENE 8.1 mph - 0.02 in Snow Light Snow
6:45 AM 34.0 °F 26.6 °F 30.0 °F 85% 29.98 in 1.5 mi East 9.2 mph - 0.03 in Snow Light Snow
6:52 AM 34.0 °F 26.0 °F 30.0 °F 85% 29.98 in 1.5 mi East 10.4 mph - 0.03 in Snow Light Snow
7:14 AM 34.0 °F 26.6 °F 30.0 °F 85% 29.96 in 1.0 mi East 9.2 mph - 0.01 in Snow Light Snow
7:45 AM 34.0 °F 26.0 °F 30.0 °F 85% 29.94 in 1.5 mi East 10.4 mph - 0.03 in Snow Light Snow
7:52 AM 34.0 °F 26.6 °F 30.0 °F 85% 29.94 in 2.0 mi ENE 9.2 mph - 0.03 in Rain Light Rain
8:04 AM 34.0 °F 25.0 °F 30.0 °F 85% 29.93 in 3.0 mi ENE 12.7 mph 19.6 mph 0.01 in Rain Light Rain
8:52 AM 35.1 °F 28.6 °F 30.9 °F 85% 29.90 in 4.0 mi ENE 8.1 mph - 0.06 in Rain Rain
9:14 AM 36.0 °F 29.0 °F 30.9 °F 82% 29.88 in 4.0 mi East 9.2 mph 19.6 mph 0.03 in Rain Rain
9:27 AM 36.0 °F 28.0 °F 30.9 °F 82% 29.87 in 3.0 mi East 11.5 mph 20.7 mph 0.04 in Rain Rain
9:52 AM 36.0 °F 29.0 °F 32.0 °F 86% 29.86 in 3.0 mi ENE 9.2 mph 21.9 mph 0.07 in Rain Rain
10:30 AM 37.0 °F 30.4 °F 33.1 °F 86% 29.83 in 2.5 mi ENE 9.2 mph 19.6 mph 0.05 in Rain Rain
10:43 AM 37.0 °F 29.3 °F 33.1 °F 86% 29.81 in 3.0 mi East 11.5 mph 19.6 mph 0.07 in Rain Rain
10:52 AM 37.0 °F 28.5 °F 33.1 °F 86% 29.80 in 4.0 mi East 13.8 mph 24.2 mph 0.08 in Rain Light Rain
11:11 AM 37.9 °F 30.5 °F 33.1 °F 83% 29.79 in 5.0 mi East 11.5 mph 20.7 mph 0.01 in Rain Light Rain
11:52 AM 37.9 °F 31.5 °F 34.0 °F 86% 29.77 in 2.0 mi East 9.2 mph 17.3 mph 0.06 in Rain Rain
12:11 PM 39.0 °F 32.8 °F 35.1 °F 86% 29.74 in 2.5 mi East 9.2 mph 23.0 mph 0.02 in Rain Light Rain
12:38 PM 39.0 °F 31.0 °F 35.1 °F 86% 29.73 in 4.0 mi ENE 13.8 mph 23.0 mph 0.04 in Rain Light Rain
12:52 PM 39.0 °F 31.8 °F 35.1 °F 86% 29.72 in 4.0 mi ENE 11.5 mph 18.4 mph 0.04 in Rain Light Rain
1:13 PM 39.0 °F 33.4 °F 35.1 °F 86% 29.69 in 2.5 mi ENE 8.1 mph 17.3 mph 0.01 in Rain Light Rain
1:23 PM 39.0 °F 31.8 °F 36.0 °F 89% 29.68 in 3.0 mi ENE 11.5 mph 16.1 mph 0.02 in Rain Light Rain
1:31 PM 39.9 °F 34.5 °F 35.1 °F 83% 29.67 in 2.0 mi ENE 8.1 mph 19.6 mph 0.02 in Rain Light Rain
1:52 PM 39.9 °F 33.9 °F 36.0 °F 86% 29.65 in 4.0 mi ENE 9.2 mph - 0.02 in Rain Light Rain
2:23 PM 39.9 °F 33.4 °F 36.0 °F 86% 29.61 in 2.0 mi ENE 10.4 mph 19.6 mph 0.01 in Rain Light Rain
2:52 PM 39.9 °F 37.8 °F 37.0 °F 89% 29.62 in 3.0 mi Variable 3.5 mph - 0.02 in Rain Light Rain
2:55 PM 41.0 °F 37.1 °F 37.0 °F 86% 29.62 in 1.8 mi NNW 5.8 mph - 0.03 in Rain Light Rain
3:04 PM 39.9 °F 35.8 °F 37.0 °F 89% 29.61 in 1.2 mi North 5.8 mph - 0.06 in Rain Rain
3:13 PM 39.9 °F 35.8 °F 37.0 °F 89% 29.61 in 1.5 mi North 5.8 mph - 0.08 in Rain Rain
3:23 PM 39.9 °F 33.9 °F 37.0 °F 89% 29.60 in 3.0 mi NNW 9.2 mph - 0.09 in Rain Light Rain
3:31 PM 39.9 °F 33.9 °F 37.0 °F 89% 29.61 in 4.0 mi NW 9.2 mph - 0.09 in Rain Light Rain
3:52 PM 39.9 °F 33.9 °F 36.0 °F 86% 29.60 in 2.5 mi NNW 9.2 mph 18.4 mph 0.10 in Rain Light Rain
3:57 PM 39.9 °F 32.9 °F 36.0 °F 86% 29.59 in 1.2 mi NNW 11.5 mph - 0.01 in Rain Rain
4:09 PM 39.9 °F 33.4 °F 36.0 °F 86% 29.58 in 2.0 mi North 10.4 mph - 0.02 in Rain Light Rain
4:22 PM 39.9 °F 33.9 °F 36.0 °F 86% 29.56 in 3.0 mi North 9.2 mph 18.4 mph 0.03 in Rain Light Rain
4:52 PM 39.9 °F 32.5 °F 36.0 °F 86% 29.56 in 9.0 mi North 12.7 mph 17.3 mph 0.05 in Rain Light Rain
5:52 PM 39.0 °F 32.3 °F 35.1 °F 86% 29.55 in 10.0 mi North 10.4 mph 19.6 mph 0.00 in   Overcast
6:10 PM 39.0 °F 32.8 °F 35.1 °F 86% 29.55 in 8.0 mi NW 9.2 mph - N/A   Overcast
6:30 PM 37.9 °F 31.5 °F 34.0 °F 86% 29.57 in 2.0 mi WNW 9.2 mph - N/A   Overcast
6:33 PM 37.9 °F 32.1 °F 34.0 °F 86% 29.57 in 1.8 mi NW 8.1 mph - N/A   Overcast
6:52 PM 37.0 °F 29.8 °F 34.0 °F 89% 29.58 in 1.5 mi NNW 10.4 mph - N/A   Overcast
7:10 PM 37.0 °F 29.8 °F 33.1 °F 86% 29.59 in 3.0 mi NW 10.4 mph - N/A   Overcast
7:24 PM 37.0 °F 29.8 °F 33.1 °F 86% 29.59 in 4.0 mi NW 10.4 mph 17.3 mph N/A   Overcast
7:44 PM 37.0 °F 30.4 °F 33.1 °F 86% 29.59 in 4.0 mi NW 9.2 mph - N/A   Overcast
7:52 PM 36.0 °F 29.6 °F 33.1 °F 89% 29.59 in 4.0 mi WNW 8.1 mph - N/A   Overcast
8:52 PM 36.0 °F 28.5 °F 32.0 °F 86% 29.63 in 10.0 mi West 10.4 mph - N/A   Overcast
9:52 PM 35.1 °F 26.9 °F 30.9 °F 85% 29.65 in 8.0 mi WNW 11.5 mph 18.4 mph 0.01 in Snow Light Snow
10:28 PM 34.0 °F 25.5 °F 30.0 °F 85% 29.65 in 6.0 mi WNW 11.5 mph 18.4 mph 0.00 in Snow Light Snow
10:32 PM 34.0 °F 26.0 °F 30.0 °F 85% 29.65 in 8.0 mi WNW 10.4 mph 17.3 mph 0.00 in Snow Light Snow
10:41 PM 34.0 °F 25.5 °F 30.0 °F 85% 29.65 in 9.0 mi NW 11.5 mph - 0.00 in Snow Light Snow
11:00 PM 34.0 °F 25.0 °F 28.9 °F 82% 29.65 in 10.0 mi NW 12.7 mph 19.6 mph N/A   Mostly Cloudy
11:52 PM 33.1 °F 24.9 °F 27.0 °F 78% 29.69 in 10.0 mi NNW 10.4 mph 21.9 mph N/A   Overcast